www.pogodaiklimat.ru

Погода и климат >> Архив погоды >> Ирак >> Кут-аль-Хай


ПОГОДА в Кут-аль-Хай

  • Прогноз погоды в Кут-аль-Хай
  • Монитор погоды в Кут-аль-Хай

АРХИВ ПОГОДЫ в Кут-аль-Хай

Время (UTC), дата Ветер
(напр.,м/с)
 
Видим.   Явления Облачность Т
(С)
Тd
(С)
f
(%)
Тe
(С)
Тes
(С)
Комфортность P
(гПа)
Po
(гПа)
Тmin
(С)
Tmax
(С)
R
(мм)
R24
(мм)
S
(см)
06 18.08 З 3 10 км ясно +36.0 +16.9 32 +39 +48 очень
душно
1001.7 1000.0 +26.5
09 18.08 З 4 10 км ясно +41.6 +16.5 23
15 18.08 З 3 10 км ясно +41.0 +15.3 22 +42 +42 опасность
перегрева
1000.9 999.3
21 18.08 З 2 10 км ясно +33.7 +16.2 35 +36 +36 очень
душно
1002.8 1001.1
00 19.08 З 2 10 км ясно +30.6 1002.9 1001.2
03 19.08 З 2 10 км ясно +30.0 +16.5 44 +33 +34 душно 1003.6 1001.9
09 19.08 З 3 10 км ясно +43.6 +14.5 18 +44 +60 опасность
перегрева
1004.4 1002.8
12 19.08 З 4 10 км ясно +45.0 +14.8 18 +46 +53 опасность
перегрева
1003.3 1001.7
15 19.08 З 4 10 км ясно +42.2 +16.0 22 +44 +44 опасность
перегрева
1003.5 1001.9
18 19.08 З 3 10 км ясно +36.2 +17.4 33 +39 +39 очень
душно
1004.7 1003.0 +45.5
21 19.08 З 3 10 км ясно +34.0 +14.7 31 +35 +35 очень
жарко
1004.2 1002.5
00 20.08 З 2 10 км ясно +32.0 +14.4 34 +34 +34 душно 1003.6 1001.9
03 20.08 З 3 10 км ясно +29.0 +11.8 35 +30 +30 жарко 1004.6 1002.9
06 20.08 С 3 10 км ясно +36.8 +16.2 30 +39 +48 очень
душно
1005.5 1003.8 +28.6
09 20.08 З 5 10 км ясно +45.0 +13.5 16 +45 +55 опасность
перегрева
1005.0 1003.4
12 20.08 З 3 10 км ясно +46.4 +12.3 14 +46 +55 опасность
перегрева
1003.4 1001.8
15 20.08 З 3 10 км ясно +43.0 +38 +38 очень
жарко
1003.4 1001.8
21 20.08 З 2 10 км ясно +35.0 +13.9 28 +36 +36 очень
жарко
1003.7 1002.0
00 21.08 З 2 10 км ясно +31.6 +11.9 30 +32 +32 жарко 1002.9 1001.2
03 21.08 З 3 10 км ясно +29.0 +13.2 38 +31 +31 жарко 1003.5 1001.8
06 21.08 З 3 10 км ясно +38.4 +16.0 27 +40 +49 очень
душно
1004.8 1003.1 +28.8
09 21.08 СЗ 6 10 км ясно +47.0 +11.8 13 +46 +54 опасность
перегрева
1004.0 1002.4
15 21.08 З 5 10 км ясно +44.2 +13.3 17 +44 +44 опасность
перегрева
1002.1 1000.5
21 21.08 З 4 10 км ясно +34.2 +14.9 31 +36 +36 душно 1003.2 1001.5
00 22.08 З 4 10 км ясно +31.8 +15.2 37 +34 +34 душно 1002.8 1001.1
03 22.08 З 5 10 км ясно +30.8 +12.6 33 +32 +32 жарко 1002.5 1000.8
06 22.08 СЗ 6 10 км ясно +36.8 +12.4 23 +37 +41 очень
жарко
1003.0 1001.3 +30.4
09 22.08 СЗ 7 10 км ясно +43.0 +12.9 17 +43 +48 опасность
перегрева
1002.3 1000.7
15 22.08 З 6 10 км ясно +41.2 +11.5 17 +40 +40 очень
жарко
1001.3 999.7
21 22.08 СЗ 6 10 км ясно +32.4 +12.7 30 +33 +33 жарко 1002.0 1000.3
00 23.08 СЗ 5 10 км ясно +31.0 +11.2 30 +31 +31 жарко 1001.7 1000.0
03 23.08 СЗ 4 10 км ясно +30.6 +11.8 31 +31 +31 жарко 1002.1 1000.4
06 23.08 СЗ 5 10 км ясно +36.1 +13.0 25 +36 +42 очень
жарко
1003.6 1001.9 +30.4
09 23.08 З 6 10 км ясно +43.7 +10.3 14 +42 +50 опасность
перегрева
1002.8 1001.2
12 23.08 З 8 10 км ясно +45.7 +10.2 12 +44 +46 опасность
перегрева
1001.9 1000.3
15 23.08 З 5 10 км ясно +42.4 +12.4 17 +42 +42 опасность
перегрева
1001.6 1000.0
18 23.08 З 4 10 км ясно +36.3 +15.6 29 +38 +38 очень
душно
1003.0 1001.3 +45.8
21 23.08 З 4 10 км ясно +33.9 +12.9 28 +34 +34 очень
жарко
1002.8 1001.1
03 24.08 З 2 10 км ясно +28.6 +14.4 42 +31 +31 жарко 1004.6 1002.9
06 24.08 СВ 3 10 км ясно +35.1 +23.7 52 +46 +55 опасность
перегрева
1005.6 1003.9 +28.4
09 24.08 С 2 10 км ясно +42.4 +23.6 35 +52 +71 опасность
перегрева
1004.6 1003.0
12 24.08 штиль 0 10 км ясно +45.4 +18.5 22 +49 +63 опасность
перегрева
1002.9 1001.3
15 24.08 штиль 0 10 км ясно +43.6 +21.1 28 +50 +50 опасность
перегрева
1002.5 1000.9
18 24.08 штиль 0 10 км ясно +36.8 +20.2 38 +43 +43 опасность
перегрева
1003.5 1001.8 +46.0
21 24.08 СЗ 4 10 км ясно +34.4 +17.4 36 +38 +38 очень
душно
1003.1 1001.4

 

Местоположение метеостанции Кут-аль-Хай (Ирак): широта 32.17 долгота 46.05 высота над уровнем моря 15 м.

В архиве по умолчанию представлена погода в Кут-аль-Хай за последнюю неделю. Архивные данные за месяц целиком и за предыдущие месяцы, начиная с января 2011 года, Вы можете получить, выбрав интересующий диапазон дат из раскрывающегося списка и нажав кнопку "Ввод!".


*Определитесь, кто Вы:
робот инопланетянин человек

Внимание! Время в таблицах - всемирное. Для получения местного времени необходимо прибавить поправку, которая равна 3 ч.

Смотрите также архив погоды в соседних городах и на ближайших метеорологических станциях:

Погода в Убайда Бин Аль Джарра (Ирак) (45 км)
Погода в Рифаи (Ирак) (50 км)
Погода в Али Аль-Гарби (Ирак) (71 км)
Погода в Дивании (Ирак) (103 км)
Погода в Бадре (Ирак) (104 км)
Погода в Амаре (Ирак) (111 км)
Погода в Эс-Самаве (Ирак) (122 км)
Погода в Насирии (Ирак) (122 км)
Погода в Эль-Азизии (Ирак) (124 км)
Погода в Хелле (Ирак) (154 км)

Пояснения к столбцам:

Ветер - указаны скорость ветра в м/с - средняя за 10 мин, порывы в срок и между сроками (в фигурных скобках) и направление, откуда дует ветер: С - северный, СВ - северо-восточный, В - восточный, ЮВ - юго-восточный, Ю - южный, ЮЗ - юго-западный, З - западный, СЗ - северо-западный.
Видимость - горизонтальная дальность видимости в метрах или километрах. При видимости от 1 до 10 км при отсутствии осадков обычно наблюдается дымка, при ухудшении видимости до 1 км и менее - туман. В сухую погоду видимость может ухудшаться дымом, пылью или мглою.
Явления - указаны атмосферные явления, наблюдавшиеся в срок или в последний час перед сроком; фигурными скобками обозначены явления, наблюдавшиеся между сроками (за 1-3 часа до срока); квадратными скобками обозначены град или гололедные отложения с указанием их диаметра в мм.
Облачность - указаны через наклонную черту общая и нижняя облачность в баллах и высота нижней границы облаков в метрах; квадратными скобками обозначены формы облаков: Ci - перистые, Cs - перисто-слоистые, Cc - перисто-кучевые, Ac - высококучевые, As - высокослоистые, Sc - слоисто-кучевые, Ns - слоисто-дождевые, Cu - кучевые, Cb - кучево-дождевые. Подробнее классификацию облаков см. в Атласе облаков (PDF).
T - Температура воздуха - температура, измеренная на высоте 2 м над землей.
Td - Температура точки росы - температура, при понижении до которой содержащийся в воздухе водяной пар достигнет насыщения.
f - Относительная влажность воздуха - влажноcть воздуха, измеренная на высоте 2 м над землей.
Te - Эффективная температура - температура, которую ощущает одетый по сезону человек в тени. Характеристика душности погоды. При расчете учитывается влияние влажности воздуха и скорости ветра на теплоощущения человека.
Tes - Эффективная температура на солнце - температура, которую ощущает человек, с поправкой на солнечный нагрев. Характеристика знойности погоды. Зависит от высоты солнца над горизонтом, облачности и скорости ветра. Ночью, в пасмурную погоду, а также при ветре 12 м/с и более поправка равна нулю.
P - Атмосферное давление - приведенное к уровню моря атмосферное давление.
Po - Атмосферное давление - измеренное на уровне метеостанции атмосферное давление.
Tmin - Минимальная температура - минимум температуры воздуха на высоте 2 м над землей.
Tmax - Максимальная температура - максимум температуры воздуха на высоте 2 м над землей.
R - Количество осадков - Количество выпавших осадков за период времени, мм. При наведении курсора мыши на число - период времени, за который выпало указанное количество осадков.
R24 - Количество осадков - Количество выпавших осадков за 24 часа, мм.
S - Снежный покров - Высота снежного покрова, см. При наведении курсора мыши на число - состояние снежного покрова и степень покрытия местности в баллах.